Time,TemperatureF,DewpointF,PressureIn,WindDirection,WindDirectionDegrees,WindSpeedMPH,WindSpeedGustMPH,Humidity,HourlyPrecipIn,Conditions,Clouds,dailyrainin,SoftwareType,DateUTC
2013-02-09 00:05:00,25.2,19.6,29.62,South,180,0.9,0.9,79,0.00,,,0.00,WUHU216HW,2013-02-09 07:05:00,
2013-02-09 00:35:00,24.5,19.3,29.62,SSE,158,0.7,0.7,80,0.00,,,0.00,WUHU216HW,2013-02-09 07:35:00,
2013-02-09 01:04:00,23.9,18.7,29.62,South,180,0.4,0.4,80,0.00,,,0.00,WUHU216HW,2013-02-09 08:04:00,
2013-02-09 01:35:00,23.4,18.5,29.61,SSE,158,0.4,0.4,81,0.00,,,0.00,WUHU216HW,2013-02-09 08:35:00,
2013-02-09 02:04:00,22.9,17.9,29.61,South,180,1.1,1.1,81,0.00,,,0.00,WUHU216HW,2013-02-09 09:04:00,
2013-02-09 02:09:00,22.9,17.9,29.61,South,180,1.1,1.1,81,0.00,,,0.00,WUHU216HW,2013-02-09 09:09:00,
2013-02-09 02:35:00,22.5,17.8,29.61,SSW,203,1.1,1.1,82,0.00,,,0.00,WUHU216HW,2013-02-09 09:35:00,
2013-02-09 03:04:00,22.1,17.5,29.61,South,180,0.2,0.4,82,0.00,,,0.00,WUHU216HW,2013-02-09 10:04:00,
2013-02-09 03:09:00,22.1,17.5,29.61,South,180,0.2,0.4,82,0.00,,,0.00,WUHU216HW,2013-02-09 10:09:00,
2013-02-09 03:35:00,21.6,16.9,29.61,SSE,158,0.7,0.7,82,0.00,,,0.00,WUHU216HW,2013-02-09 10:35:00,
2013-02-09 04:04:00,21.4,16.7,29.61,SSE,158,0.9,0.9,82,0.00,,,0.00,WUHU216HW,2013-02-09 11:04:00,
2013-02-09 04:35:00,21.2,16.6,29.61,SSE,158,0.7,0.7,82,0.00,,,0.00,WUHU216HW,2013-02-09 11:35:00,
2013-02-09 05:04:00,20.7,16.3,29.61,SSW,203,1.8,1.8,83,0.00,,,0.00,WUHU216HW,2013-02-09 12:04:00,
2013-02-09 05:09:00,20.7,16.3,29.61,SSW,203,1.8,1.8,83,0.00,,,0.00,WUHU216HW,2013-02-09 12:09:00,
2013-02-09 05:35:00,20.3,15.9,29.61,SSE,158,0.0,0.0,83,0.00,,,0.00,WUHU216HW,2013-02-09 12:35:00,
2013-02-09 06:04:00,20.0,15.6,29.61,SSE,158,0.0,0.0,83,0.00,,,0.00,WUHU216HW,2013-02-09 13:04:00,
2013-02-09 06:35:00,19.8,15.1,29.61,SSE,158,0.2,0.2,82,0.00,,,0.00,WUHU216HW,2013-02-09 13:35:00,
2013-02-09 07:04:00,19.4,15.0,29.62,SSW,203,0.7,0.7,83,0.00,,,0.00,WUHU216HW,2013-02-09 14:04:00,
2013-02-09 07:35:00,19.1,14.7,29.62,South,180,1.1,1.1,83,0.00,,,0.00,WUHU216HW,2013-02-09 14:35:00,
2013-02-09 08:05:00,18.7,14.0,29.63,SSW,203,0.7,0.7,82,0.00,,,0.00,WUHU216HW,2013-02-09 15:05:00,
2013-02-09 08:35:00,18.5,14.1,29.64,SW,225,1.1,1.1,83,0.00,,,0.00,WUHU216HW,2013-02-09 15:35:00,
2013-02-09 09:05:00,18.7,14.0,29.64,SSW,203,0.0,0.0,82,0.00,,,0.00,WUHU216HW,2013-02-09 16:05:00,
2013-02-09 09:35:00,19.1,14.7,29.64,SSE,158,0.7,0.7,83,0.00,,,0.00,WUHU216HW,2013-02-09 16:35:00,
2013-02-09 10:05:00,19.6,14.9,29.65,SW,225,0.0,0.0,82,0.00,,,0.00,WUHU216HW,2013-02-09 17:05:00,
2013-02-09 10:35:00,20.9,16.2,29.65,South,180,0.7,0.7,82,0.00,,,0.00,WUHU216HW,2013-02-09 17:35:00,
2013-02-09 11:04:00,25.2,18.6,29.65,SSE,158,0.4,0.4,76,0.00,,,0.00,WUHU216HW,2013-02-09 18:04:00,
2013-02-09 11:35:00,29.0,19.7,29.66,North,0,0.0,0.0,68,0.00,,,0.00,WUHU216HW,2013-02-09 18:35:00,
2013-02-09 12:04:00,31.5,20.3,29.65,North,0,0.0,0.0,63,0.00,,,0.00,WUHU216HW,2013-02-09 19:04:00,
2013-02-09 12:35:00,34.9,20.8,29.64,North,0,0.0,0.0,56,0.00,,,0.00,WUHU216HW,2013-02-09 19:35:00,
2013-02-09 13:04:00,36.9,20.1,29.62,North,0,0.0,0.0,50,0.00,,,0.00,WUHU216HW,2013-02-09 20:04:00,
2013-02-09 13:09:00,36.9,20.1,29.62,North,0,0.0,0.0,50,0.00,,,0.00,WUHU216HW,2013-02-09 20:09:00,
2013-02-09 13:35:00,38.3,19.8,29.61,North,0,0.0,0.0,47,0.00,,,0.00,WUHU216HW,2013-02-09 20:35:00,
2013-02-09 14:04:00,39.2,17.5,29.61,SE,135,1.1,1.8,41,0.00,,,0.00,WUHU216HW,2013-02-09 21:04:00,
2013-02-09 14:09:00,39.2,17.5,29.61,SE,135,1.1,1.1,41,0.00,,,0.00,WUHU216HW,2013-02-09 21:09:00,
2013-02-09 14:35:00,40.5,20.2,29.60,WNW,293,1.8,1.8,44,0.00,,,0.00,WUHU216HW,2013-02-09 21:35:00,
2013-02-09 15:05:00,40.7,20.4,29.59,North,0,2.5,2.5,44,0.00,,,0.00,WUHU216HW,2013-02-09 22:05:00,
2013-02-09 15:35:00,41.6,20.6,29.59,NW,315,1.1,1.1,43,0.03,,,0.00,WUHU216HW,2013-02-09 22:35:00,
2013-02-09 16:04:00,40.5,18.5,29.60,SE,135,1.1,1.1,41,0.03,,,0.03,WUHU216HW,2013-02-09 23:04:00,
2013-02-09 16:09:00,40.5,18.5,29.60,SE,135,1.1,1.1,41,0.03,,,0.03,WUHU216HW,2013-02-09 23:09:00,
2013-02-09 16:35:00,40.0,18.6,29.60,ESE,113,3.4,3.4,42,0.00,,,0.03,WUHU216HW,2013-02-09 23:35:00,
2013-02-09 17:05:00,39.2,19.5,29.61,SE,135,3.4,3.4,45,0.00,,,0.03,WUHU216HW,2013-02-10 00:05:00,
2013-02-09 17:35:00,38.0,18.9,29.62,WSW,248,0.7,0.7,46,0.00,,,0.03,WUHU216HW,2013-02-10 00:35:00,
2013-02-09 18:05:00,36.9,20.1,29.64,SE,135,1.1,1.1,50,0.00,,,0.03,WUHU216HW,2013-02-10 01:05:00,
2013-02-09 18:35:00,36.2,20.3,29.65,SSE,158,0.7,0.7,52,0.00,,,0.03,WUHU216HW,2013-02-10 01:35:00,
2013-02-09 19:04:00,35.6,20.2,29.67,ESE,113,0.0,0.0,53,0.00,,,0.03,WUHU216HW,2013-02-10 02:04:00,
2013-02-09 19:35:00,34.7,19.7,29.68,WSW,248,3.1,3.1,54,0.00,,,0.03,WUHU216HW,2013-02-10 02:35:00,
2013-02-09 20:04:00,34.2,20.5,29.67,SSE,158,0.0,0.0,57,0.00,,,0.03,WUHU216HW,2013-02-10 03:04:00,
2013-02-09 20:35:00,34.2,20.1,29.68,ESE,113,0.4,0.4,56,0.00,,,0.03,WUHU216HW,2013-02-10 03:35:00,
2013-02-09 21:05:00,33.5,19.8,29.68,SE,135,3.4,3.4,57,0.00,,,0.03,WUHU216HW,2013-02-10 04:05:00,
2013-02-09 21:35:00,33.1,19.9,29.68,ESE,113,1.3,1.3,58,0.00,,,0.03,WUHU216HW,2013-02-10 04:35:00,
2013-02-09 22:05:00,31.9,19.6,29.69,SW,225,1.8,1.8,60,0.00,,,0.03,WUHU216HW,2013-02-10 05:05:00,
2013-02-09 22:35:00,29.5,19.5,29.69,SSW,203,0.0,0.0,66,0.00,,,0.03,WUHU216HW,2013-02-10 05:35:00,
2013-02-09 23:05:00,29.2,19.9,29.70,SE,135,0.7,0.7,68,0.00,,,0.03,WUHU216HW,2013-02-10 06:05:00,
2013-02-09 23:35:00,29.3,17.9,29.70,East,90,1.1,1.1,62,0.00,,,0.03,WUHU216HW,2013-02-10 06:35:00,